Torna al catalogo

GEESAT 2-02

AttivoScienzaLEO
NORAD 58906·PAYLOAD·🇨🇳 China

Lanciato Feb 2, 2024 da Xichang Satellite Launch Center

Loading…

Prossimi Passaggi (prossime 24 ore)

TLE

AggiornatoSource: Space-Track

Epoca: Sep 14, 2026, 14:08 UTC

1 58906U 24023B   26257.58937374  .00000963  00000-0  14337-3 0  9996
2 58906  49.9992 300.1239 0014735 340.2974  19.7394 14.83446570142180

Traccia GEESAT 2-02 in tempo reale con AllMySat

Download on the App Store